Miscellaneous Local Product
Issued by NWS Hastings, NE

Home | Current Version | Previous Version | Graphics & Text | Print | Product List | Glossary On
Versions: 1 2 3 4 5 6 7 8 9 10 11 12 13 14 15 16 17 18 19 20 21 22 23 24 25 26 27 28 29 30 31 32 33 34 35 36 37 38 39 40 41 42 43 44 45 46 47 48 49 50
000
AXUS43 KGID 250802
MISGRI

GID CWA HOURLY WEATHER ROUNDUP
NATIONAL WEATHER SERVICE HASTINGS NE
200 AM CST TUE NOV 25 2014

NOTE: "FAIR" INDICATES FEW OR NO CLOUDS BELOW 12,000 FEET WITH NO
SIGNIFICANT WEATHER AND/OR OBSTRUCTIONS TO VISIBILITY.

...SOUTH CENTRAL NEBRASKA...

CITY           SKY/WX    TMP DP  RH WIND       PRES   REMARKS
GRAND ISLAND   CLEAR     21  15  78 W9        30.14R WCI  11
HASTINGS       CLEAR     22  16  78 W10       30.13R WCI  11
KEARNEY        CLEAR     19  14  79 W5        30.15S WCI  13
ORD            CLEAR     14   9  80 CALM      30.11S
YORK           CLEAR     21  14  73 NW12      30.12S WCI   9
AURORA         CLEAR     18  12  77 W8        30.13R WCI   7
LEXINGTON      CLEAR     17  15  90 NW6       30.14S WCI   9
HOLDREGE       FAIR      23  18  83 W6        30.14S WCI  15
HEBRON         PTCLDY    19  11  73 W6        30.16R WCI  11

...NEBRASKA PANHANDLE...

CITY           SKY/WX    TMP DP  RH WIND       PRES   REMARKS
CHADRON        PTCLDY    24  19  81 SW9       30.08F WCI  14
ALLIANCE       CLEAR     19  16  88 W10       30.10F WCI   7
SCOTTSBLUFF    PTCLDY    19  16  88 NW8       30.13F WCI   9
SIDNEY         CLEAR     23  16  74 W10       30.13F WCI  12

...WESTERN AND NORTH CENTRAL NEBRASKA...

CITY           SKY/WX    TMP DP  RH WIND       PRES   REMARKS
VALENTINE      PTCLDY    23  21  92 W9        30.06S WCI  13
AINSWORTH      CLOUDY    29  27  90 W7        30.06S WCI  22
ONEILL         PTCLDY    19  16  88 W7        30.08S WCI   9
BROKEN BOW     PTCLDY    22  18  85 CALM      30.10F
IMPERIAL       CLEAR     22  16  78 W12       30.16S WCI  10
NORTH PLATTE   CLEAR     17  15  92 W6        30.13F WCI   9
MCCOOK         CLEAR     23  21  92 SW9       30.17F WCI  13

...EASTERN NEBRASKA...

CITY           SKY/WX    TMP DP  RH WIND       PRES   REMARKS
NORFOLK        CLEAR     19   9  65 W10       30.10R WCI   7
SO SIOUX CITY  CLEAR     19   7  59 NW9       30.10R WCI   8
TEKAMAH        CLEAR     20   8  60 NW13      30.11  WCI   7
COLUMBUS       CLEAR     18   7  62 W8        30.13R WCI   7
ALBION         CLEAR     17  10  75 CALM      30.11R
OMAHA EPPLEY   CLEAR     22   7  52 NW9       30.13R WCI  12
OFFUTT AFB     CLEAR     22   5  48 NW9       30.12R WCI  12
MILLARD        CLEAR     24   8  52 NW6       30.12S WCI  17
LINCOLN        CLEAR     23   8  52 CALM      30.15R
NEBRASKA CITY  CLEAR     20   7  56 W7        30.13R WCI  11
BEATRICE       CLEAR     16   9  75 W6        30.14S WCI   7
FALLS CITY     CLEAR     23  11  60 NW12      30.13R WCI  12

...NORTHERN KANSAS...

CITY           SKY/WX    TMP DP  RH WIND       PRES   REMARKS
GOODLAND       CLEAR     21  17  84 W10       30.19F WCI  10
HILL CITY      CLEAR     27  20  75 NW7       30.19S WCI  19
NORTON         SUNNY     19  16  86 W7        30.17R WCI  10
PHILLIPSBURG   CLEAR     25  19  80 W8        30.19R WCI  16
SMITH CENTER   CLEAR     18  12  79 W3        30.18S
BELOIT         CLEAR     21  16  79 W3        30.18S
HAYS           MOCLDY    27  16  63 CALM      30.19S
RUSSELL        CLOUDY    26  19  74 W6        30.18R WCI  19
CONCORDIA      PTCLDY    22  14  71 NW3       30.16F
SALINA         CLEAR     26  16  65 W8        30.21R WCI  18
TOPEKA         CLEAR     26  12  55 W6        30.17S WCI  19



USA.gov is the U.S. government's official web portal to all federal, state and local government web resources and services.